CW1020 Weather Reports


Display with metric or nautical units.
time (UTC)temp
F
wind
direction
speed
MPH
gust
MPH
rain 1hr
in
rain 24hr
in
rain mn
in
humidity
%
barometer
mb
20200928145036 74 111 9.0 12.0 0.00 0.00 0.00 23 1021.3
20200928144541 73 123 6.0 11.0 0.00 0.00 0.00 24 1021.2
20200928144038 72 121 7.0 11.0 0.00 0.00 0.00 26 1021.1
20200928143539 71 119 2.0 6.0 0.00 0.00 0.00 26 1021.1
20200928143035 71 122 1.0 5.0 0.00 0.00 0.00 26 1021.1
20200928142534 70 147 2.0 6.0 0.00 0.00 0.00 27 1021.1
20200928142043 70 170 2.0 5.0 0.00 0.00 0.00 27 1021.0
20200928141543 69 169 2.0 3.0 0.00 0.00 0.00 27 1021.0
20200928141028 69 169 1.0 3.0 0.00 0.00 0.00 28 1021.0
20200928140547 68 120 1.0 3.0 0.00 0.00 0.00 28 1020.9
20200928140048 66 152 2.0 3.0 0.00 0.00 0.00 30 1020.9
20200928135528 65 181 1.0 3.0 0.00 0.00 0.00 32 1020.9
20200928135032 64 293 1.0 3.0 0.00 0.00 0.00 32 1020.8
20200928134536 65 177 1.0 3.0 0.00 0.00 0.00 32 1020.8
20200928134041 65 155 1.0 5.0 0.00 0.00 0.00 32 1020.8
20200928133540 65 155 1.0 5.0 0.00 0.00 0.00 32 1020.7
20200928133041 65 186 2.0 4.0 0.00 0.00 0.00 32 1020.6
20200928132528 65 240 1.0 2.0 0.00 0.00 0.00 31 1020.6
20200928132031 65 250 0.0 2.0 0.00 0.00 0.00 31 1020.5
20200928131531 65 250 0.0 2.0 0.00 0.00 0.00 32 1020.4
20200928131053 65 250 0.0 3.0 0.00 0.00 0.00 32 1020.4
20200928130548 64 250 1.0 3.0 0.00 0.00 0.00 33 1020.3
20200928130040 64 250 2.0 3.0 0.00 0.00 0.00 33 1020.4
20200928125545 64 128 1.0 2.0 0.00 0.00 0.00 34 1020.3
20200928125029 64 128 0.0 2.0 0.00 0.00 0.00 34 1020.4
20200928124529 64 128 1.0 2.0 0.00 0.00 0.00 34 1020.4
20200928124031 64 128 0.0 2.0 0.00 0.00 0.00 33 1020.2
20200928123536 64 128 0.0 2.0 0.00 0.00 0.00 33 1020.2
20200928123029 64 128 1.0 2.0 0.00 0.00 0.00 33 1020.2
20200928122535 65 128 0.0 2.0 0.00 0.00 0.00 32 1020.1
20200928122040 65 128 1.0 7.0 0.00 0.00 0.00 32 1020.1
20200928121545 66 128 1.0 7.0 0.00 0.00 0.00 32 1020.1
20200928121048 66 270 0.0 3.0 0.00 0.00 0.00 31 1020.0
20200928120552 66 270 2.0 3.0 0.00 0.00 0.00 31 1019.9
20200928120032 67 145 1.0 7.0 0.00 0.00 0.00 31 1019.9
20200928115528 67 145 2.0 9.0 0.00 0.00 0.00 31 1019.8
20200928115035 67 136 4.0 9.0 0.00 0.00 0.00 31 1019.7
20200928114541 67 269 2.0 4.0 0.00 0.00 0.00 31 1019.7
20200928114045 67 236 2.0 4.0 0.00 0.00 0.00 31 1019.7
20200928113551 67 245 3.0 4.0 0.00 0.00 0.00 31 1019.7
20200928113032 67 258 4.0 4.0 0.00 0.00 0.00 31 1019.6
20200928112536 67 238 2.0 3.0 0.00 0.00 0.00 31 1019.6
20200928112041 67 238 3.0 4.0 0.00 0.00 0.00 31 1019.5
20200928111529 67 238 2.0 7.0 0.00 0.00 0.00 31 1019.5
20200928111040 67 237 4.0 6.0 0.00 0.00 0.00 31 1019.4
20200928110539 67 237 3.0 4.0 0.00 0.00 0.00 31 1019.4
20200928110048 67 230 2.0 4.0 0.00 0.00 0.00 31 1019.4
20200928105544 66 238 2.0 4.0 0.00 0.00 0.00 32 1019.3
20200928105045 66 238 2.0 4.0 0.00 0.00 0.00 32 1019.2
20200928104530 66 236 3.0 4.0 0.00 0.00 0.00 32 1019.2
20200928104036 67 238 2.0 4.0 0.00 0.00 0.00 32 1019.2
20200928103547 67 238 2.0 4.0 0.00 0.00 0.00 33 1019.1
20200928103037 67 236 2.0 3.0 0.00 0.00 0.00 32 1019.2
20200928102544 67 236 1.0 4.0 0.00 0.00 0.00 32 1019.2
20200928102032 68 236 3.0 4.0 0.00 0.00 0.00 32 1019.1
20200928101531 68 236 1.0 4.0 0.00 0.00 0.00 32 1019.1
20200928101038 68 237 2.0 4.0 0.00 0.00 0.00 32 1019.1
20200928100538 68 172 2.0 3.0 0.00 0.00 0.00 31 1019.2
20200928100034 69 171 2.0 4.0 0.00 0.00 0.00 31 1019.2
20200928095539 68 170 2.0 4.0 0.00 0.00 0.00 32 1019.3
20200928095043 68 253 3.0 4.0 0.00 0.00 0.00 33 1019.3
20200928094527 68 254 1.0 4.0 0.00 0.00 0.00 33 1019.3
20200928094034 67 254 1.0 6.0 0.00 0.00 0.00 33 1019.4
20200928093553 67 250 3.0 6.0 0.00 0.00 0.00 34 1019.3
20200928093031 68 240 1.0 3.0 0.00 0.00 0.00 34 1019.3
20200928092540 68 194 1.0 3.0 0.00 0.00 0.00 34 1019.3
20200928092041 68 200 1.0 4.0 0.00 0.00 0.00 34 1019.3
20200928091546 68 124 1.0 4.0 0.00 0.00 0.00 34 1019.3
20200928091032 68 208 2.0 4.0 0.00 0.00 0.00 34 1019.4
20200928090533 68 236 2.0 4.0 0.00 0.00 0.00 34 1019.4
20200928090035 67 236 1.0 3.0 0.00 0.00 0.00 35 1019.4
20200928085543 67 236 1.0 3.0 0.00 0.00 0.00 35 1019.4
20200928085043 66 236 2.0 4.0 0.00 0.00 0.00 36 1019.3
20200928084530 66 242 2.0 4.0 0.00 0.00 0.00 37 1019.3
20200928084033 65 250 2.0 4.0 0.00 0.00 0.00 38 1019.4
20200928083535 65 250 2.0 4.0 0.00 0.00 0.00 38 1019.4
20200928083033 65 223 1.0 4.0 0.00 0.00 0.00 39 1019.5
20200928082539 64 221 2.0 4.0 0.00 0.00 0.00 39 1019.5
20200928082047 64 127 3.0 4.0 0.00 0.00 0.00 39 1019.4
20200928081529 65 239 2.0 4.0 0.00 0.00 0.00 39 1019.4
20200928081039 64 223 3.0 4.0 0.00 0.00 0.00 39 1019.4
20200928080537 64 121 2.0 4.0 0.00 0.00 0.00 39 1019.4
20200928080033 65 239 2.0 4.0 0.00 0.00 0.00 38 1019.4
20200928075531 65 121 1.0 3.0 0.00 0.00 0.00 38 1019.5
20200928075035 65 121 1.0 2.0 0.00 0.00 0.00 37 1019.4
20200928074536 66 121 1.0 2.0 0.00 0.00 0.00 37 1019.4
20200928074038 66 121 0.0 2.0 0.00 0.00 0.00 36 1019.3
20200928073541 67 121 1.0 2.0 0.00 0.00 0.00 36 1019.4
20200928073036 67 121 0.0 2.0 0.00 0.00 0.00 35 1019.4
20200928072537 67 121 1.0 2.0 0.00 0.00 0.00 35 1019.3
20200928072040 68 121 1.0 2.0 0.00 0.00 0.00 34 1019.4
20200928071547 68 121 1.0 2.0 0.00 0.00 0.00 34 1019.4
20200928071047 68 121 0.0 2.0 0.00 0.00 0.00 34 1019.4
20200928070547 68 121 1.0 2.0 0.00 0.00 0.00 34 1019.3
20200928070043 69 121 1.0 2.0 0.00 0.00 0.00 33 1019.3
20200928065532 69 121 1.0 3.0 0.00 0.00 0.00 33 1019.3
20200928065043 70 121 1.0 3.0 0.00 0.00 0.00 33 1019.2
20200928064546 70 121 1.0 2.0 0.00 0.00 0.00 32 1019.3
20200928064031 70 121 1.0 2.0 0.00 0.00 0.00 32 1019.3
20200928063556 70 121 0.0 2.0 0.00 0.00 0.00 33 1019.4
20200928063035 69 121 1.0 2.0 0.00 0.00 0.00 33 1019.3
20200928062541 69 121 0.0 1.0 0.00 0.00 0.00 34 1019.4
20200928062047 69 121 1.0 2.0 0.00 0.00 0.00 34 1019.3
20200928061535 69 121 1.0 2.0 0.00 0.00 0.00 34 1019.3
20200928061041 70 121 0.0 2.0 0.00 0.00 0.00 34 1019.2
20200928060541 70 121 2.0 2.0 0.00 0.00 0.00 35 1019.2
20200928060041 70 121 0.0 2.0 0.00 0.00 0.00 35 1019.2
20200928055548 70 121 1.0 2.0 0.00 0.00 0.00 34 1019.2
20200928055032 70 121 1.0 2.0 0.00 0.00 0.00 35 1019.2
20200928054533 71 121 1.0 3.0 0.00 0.00 0.00 36 1019.2
20200928054039 71 121 0.0 3.0 0.00 0.00 0.00 36 1019.2
20200928053542 71 116 1.0 3.0 0.00 0.00 0.00 37 1019.2
20200928053039 71 119 1.0 2.0 0.00 0.00 0.00 36 1019.1
20200928052547 71 119 1.0 3.0 0.00 0.00 0.00 37 1019.2
20200928052034 71 119 1.0 3.0 0.00 0.00 0.00 39 1019.2
20200928051542 70 120 2.0 4.0 0.00 0.00 0.00 37 1019.1
20200928051044 68 120 2.0 4.0 0.00 0.00 0.00 45 1019.1
20200928050556 68 118 1.0 3.0 0.00 0.00 0.00 52 1019.1
20200928050034 67 118 2.0 3.0 0.00 0.00 0.00 51 1019.1
20200928045530 68 118 1.0 3.0 0.00 0.00 0.00 53 1019.1
20200928045037 68 117 1.0 3.0 0.00 0.00 0.00 53 1019.1
20200928044547 68 117 0.0 1.0 0.00 0.00 0.00 52 1019.1
20200928044038 69 117 0.0 3.0 0.00 0.00 0.00 52 1019.1
20200928043542 69 117 1.0 3.0 0.00 0.00 0.00 53 1019.1
20200928043042 69 338 1.0 2.0 0.00 0.00 0.00 52 1019.1
20200928042537 68 338 0.0 2.0 0.00 0.00 0.00 52 1019.1
20200928042036 68 338 1.0 2.0 0.00 0.00 0.00 52 1019.0
20200928041542 69 338 0.0 1.0 0.00 0.00 0.00 52 1018.9
20200928041033 69 338 0.0 1.0 0.00 0.00 0.00 51 1018.9
20200928040549 69 338 0.0 1.0 0.00 0.00 0.00 51 1018.9
20200928040047 69 338 0.0 1.0 0.00 0.00 0.00 51 1018.9
20200928035535 70 338 0.0 1.0 0.00 0.00 0.00 50 1018.9
20200928035048 70 338 0.0 2.0 0.00 0.00 0.00 50 1018.8
20200928034542 70 338 1.0 2.0 0.00 0.00 0.00 50 1018.7
20200928034032 70 338 0.0 4.0 0.00 0.00 0.00 49 1018.7
20200928033534 71 338 2.0 4.0 0.00 0.00 0.00 49 1018.6
20200928033036 71 338 0.0 4.0 0.00 0.00 0.00 48 1018.6
20200928032539 71 338 1.0 4.0 0.00 0.00 0.00 48 1018.6
20200928032043 71 338 1.0 4.0 0.00 0.00 0.00 48 1018.5
20200928031528 71 338 1.0 3.0 0.00 0.00 0.00 48 1018.6
20200928031036 71 338 1.0 3.0 0.00 0.00 0.00 47 1018.5
20200928030554 72 338 1.0 3.0 0.00 0.00 0.00 47 1018.4
20200928030049 72 338 1.0 4.0 0.00 0.00 0.00 46 1018.3
20200928025537 72 338 2.0 5.0 0.00 0.00 0.00 46 1018.3
20200928025038 72 338 3.0 5.0 0.00 0.00 0.00 46 1018.3
20200928024543 73 338 3.0 5.0 0.00 0.00 0.00 44 1018.3
20200928024047 73 338 4.0 6.0 0.00 0.00 0.00 44 1018.2
20200928023554 74 338 4.0 6.0 0.00 0.00 0.00 42 1018.1
20200928023032 75 343 4.0 6.0 0.00 0.00 0.00 39 1018.1
20200928022539 76 341 4.0 8.0 0.00 0.00 0.00 38 1018.1
20200928022041 77 343 3.0 8.0 0.00 0.00 0.00 37 1018.1
20200928021529 78 316 1.0 4.0 0.00 0.00 0.00 35 1018.0
20200928021036 81 316 2.0 4.0 0.00 0.00 0.00 31 1018.0
20200928020538 82 314 2.0 5.0 0.00 0.00 0.00 20 1018.0
20200928020040 83 321 3.0 5.0 0.00 0.00 0.00 20 1018.0
20200928015546 83 336 3.0 11.0 0.00 0.00 0.00 20 1018.0
20200928015034 83 61 4.0 11.0 0.00 0.00 0.00 20 1018.0
20200928014542 83 88 6.0 12.0 0.00 0.00 0.00 20 1017.9
20200928014047 83 91 6.0 14.0 0.00 0.00 0.00 20 1017.9
20200928013548 84 83 8.0 14.0 0.00 0.00 0.00 20 1017.8
20200928013041 84 92 6.0 9.0 0.00 0.00 0.00 20 1017.7
20200928012546 84 86 7.0 12.0 0.00 0.00 0.00 20 1017.7
20200928012037 84 96 5.0 14.0 0.00 0.00 0.00 20 1017.6
20200928011535 85 92 8.0 14.0 0.00 0.00 0.00 19 1017.6
20200928011044 85 84 9.0 16.0 0.00 0.00 0.00 19 1017.6
20200928010548 85 92 11.0 16.0 0.00 0.00 0.00 19 1017.6
20200928010048 85 74 10.0 16.0 0.00 0.00 0.00 19 1017.6
20200928005529 85 99 12.0 18.0 0.00 0.00 0.00 19 1017.6
20200928005035 86 71 11.0 22.0 0.00 0.00 0.00 19 1017.6
20200928004541 86 95 12.0 22.0 0.00 0.00 0.00 19 1017.5
20200928004044 86 99 12.0 18.0 0.00 0.00 0.00 19 1017.5
20200928003547 86 88 10.0 20.0 0.00 0.00 0.00 19 1017.5
20200928003048 87 115 10.0 20.0 0.00 0.00 0.00 19 1017.5
20200928002542 87 85 11.0 18.0 0.00 0.00 0.00 19 1017.4
20200928002034 87 88 7.0 17.0 0.00 0.00 0.00 19 1017.5
20200928001542 87 105 11.0 17.0 0.00 0.00 0.00 19 1017.5
20200928001048 87 83 10.0 16.0 0.00 0.00 0.00 19 1017.4
20200928000550 87 85 7.0 18.0 0.00 0.00 0.00 19 1017.4
20200928000051 87 82 10.0 23.0 0.00 0.00 0.00 19 1017.5
20200927235537 87 106 12.0 23.0 0.00 0.00 0.00 19 1017.5
20200927235038 87 103 11.0 20.0 0.00 0.00 0.00 19 1017.5
20200927234546 87 103 14.0 20.0 0.00 0.00 0.00 19 1017.4
20200927234030 87 128 10.0 18.0 0.00 0.00 0.00 19 1017.4
20200927233554 87 146 11.0 19.0 0.00 0.00 0.00 19 1017.4
20200927233034 87 98 13.0 25.0 0.00 0.00 0.00 19 1017.5
20200927232540 87 90 16.0 25.0 0.00 0.00 0.00 19 1017.5
20200927232046 88 115 13.0 23.0 0.00 0.00 0.00 19 1017.5
20200927231548 87 126 12.0 27.0 0.00 0.00 0.00 19 1017.6
20200927231044 87 86 13.0 29.0 0.00 0.00 0.00 19 1017.5
20200927230547 87 108 17.0 29.0 0.00 0.00 0.00 19 1017.6
20200927230045 87 130 15.0 25.0 0.00 0.00 0.00 19 1017.5
20200927225546 87 133 14.0 23.0 0.00 0.00 0.00 19 1017.5
20200927225055 87 121 15.0 25.0 0.00 0.00 0.00 19 1017.6
20200927224537 87 107 14.0 27.0 0.00 0.00 0.00 19 1017.6
20200927224042 87 89 16.0 27.0 0.00 0.00 0.00 18 1017.6
20200927223538 87 119 17.0 25.0 0.00 0.00 0.00 18 1017.7
20200927223039 87 102 13.0 23.0 0.00 0.00 0.00 19 1017.7
20200927222542 87 70 13.0 21.0 0.00 0.00 0.00 19 1017.8
20200927222048 87 76 15.0 21.0 0.00 0.00 0.00 19 1017.8
20200927221529 87 107 13.0 21.0 0.00 0.00 0.00 20 1017.7
20200927221037 87 134 12.0 25.0 0.00 0.00 0.00 20 1017.8
20200927220555 87 130 16.0 25.0 0.00 0.00 0.00 20 1017.6
20200927220040 87 106 17.0 26.0 0.00 0.00 0.00 20 1017.7
20200927215542 87 133 14.0 22.0 0.00 0.00 0.00 20 1017.9
20200927215050 87 106 14.0 24.0 0.00 0.00 0.00 20 1017.9
20200927214533 86 95 12.0 24.0 0.00 0.00 0.00 20 1017.9
20200927214038 87 103 13.0 21.0 0.00 0.00 0.00 20 1018.0
20200927213540 86 101 11.0 25.0 0.00 0.00 0.00 21 1018.0
20200927213042 86 96 14.0 23.0 0.00 0.00 0.00 20 1018.1
20200927212546 87 136 16.0 23.0 0.00 0.00 0.00 21 1018.1
20200927212030 86 132 12.0 25.0 0.00 0.00 0.00 21 1018.1
20200927211532 86 103 14.0 27.0 0.00 0.00 0.00 21 1018.2
20200927211040 86 126 19.0 27.0 0.00 0.00 0.00 21 1018.1
20200927210601 86 121 16.0 30.0 0.00 0.00 0.00 22 1018.2
20200927210035 85 122 15.0 30.0 0.00 0.00 0.00 22 1018.3
20200927205540 86 106 12.0 27.0 0.00 0.00 0.00 21 1018.3
20200927205053 86 149 14.0 25.0 0.00 0.00 0.00 22 1018.3
20200927204549 86 98 18.0 25.0 0.00 0.00 0.00 22 1018.4
20200927204035 86 113 14.0 27.0 0.00 0.00 0.00 22 1018.5
20200927203539 85 117 19.0 27.0 0.00 0.00 0.00 22 1018.5
20200927203037 85 101 15.0 27.0 0.00 0.00 0.00 22 1018.6
20200927202547 86 92 18.0 27.0 0.00 0.00 0.00 22 1018.6
20200927202048 86 127 16.0 30.0 0.00 0.00 0.00 22 1018.7
20200927201531 85 115 18.0 27.0 0.00 0.00 0.00 22 1018.7
20200927201034 85 120 17.0 27.0 0.00 0.00 0.00 22 1018.8
20200927200556 85 129 18.0 28.0 0.00 0.00 0.00 22 1018.9
20200927200034 85 112 16.0 28.0 0.00 0.00 0.00 23 1018.9
20200927195536 84 117 21.0 28.0 0.00 0.00 0.00 23 1018.9
20200927195042 85 140 20.0 26.0 0.00 0.00 0.00 23 1018.9
20200927194546 85 126 16.0 27.0 0.00 0.00 0.00 23 1019.1
20200927194030 84 118 16.0 26.0 0.00 0.00 0.00 23 1019.1
20200927193552 84 123 16.0 26.0 0.00 0.00 0.00 23 1019.2
20200927193035 84 121 15.0 25.0 0.00 0.00 0.00 24 1019.2
20200927192541 84 137 16.0 26.0 0.00 0.00 0.00 23 1019.2
20200927192042 84 126 19.0 28.0 0.00 0.00 0.00 24 1019.2
20200927191602 84 135 17.0 28.0 0.00 0.00 0.00 23 1019.3
20200927191038 84 103 15.0 24.0 0.00 0.00 0.00 23 1019.3
20200927190537 84 131 14.0 27.0 0.00 0.00 0.00 23 1019.4
20200927190038 84 117 17.0 29.0 0.00 0.00 0.00 23 1019.4
20200927185542 84 123 19.0 29.0 0.00 0.00 0.00 23 1019.4
20200927185045 84 119 16.0 26.0 0.00 0.00 0.00 24 1019.4
20200927184547 84 79 15.0 28.0 0.00 0.00 0.00 24 1019.4
20200927184044 84 129 14.0 28.0 0.00 0.00 0.00 24 1019.4
20200927183549 84 115 11.0 27.0 0.00 0.00 0.00 24 1019.2
20200927183047 83 115 14.0 27.0 0.00 0.00 0.00 24 1019.2
20200927182548 83 60 13.0 22.0 0.00 0.00 0.00 25 1019.2
20200927182037 83 109 13.0 22.0 0.00 0.00 0.00 24 1019.2
20200927181542 83 110 12.0 22.0 0.00 0.00 0.00 25 1019.2
20200927181045 83 130 12.0 22.0 0.00 0.00 0.00 24 1019.2
20200927180549 83 115 14.0 20.0 0.00 0.00 0.00 24 1019.2
20200927180048 83 74 14.0 20.0 0.00 0.00 0.00 25 1019.2
20200927175544 82 121 14.0 20.0 0.00 0.00 0.00 25 1019.2
20200927175049 82 113 14.0 23.0 0.00 0.00 0.00 25 1019.1
20200927174543 82 91 13.0 23.0 0.00 0.00 0.00 25 1019.2
20200927174039 82 135 12.0 21.0 0.00 0.00 0.00 26 1019.2
20200927173542 81 116 15.0 21.0 0.00 0.00 0.00 26 1019.2
20200927173042 81 85 14.0 20.0 0.00 0.00 0.00 26 1019.2
20200927172547 81 108 13.0 20.0 0.00 0.00 0.00 26 1019.2
20200927172048 81 83 10.0 19.0 0.00 0.00 0.00 26 1019.2
20200927171532 81 101 9.0 19.0 0.00 0.00 0.00 27 1019.1
20200927171037 81 90 11.0 18.0 0.00 0.00 0.00 27 1019.1
20200927170554 80 64 12.0 18.0 0.00 0.00 0.00 28 1019.1
20200927170047 80 105 8.0 17.0 0.00 0.00 0.00 28 1019.1
20200927165541 80 111 10.0 15.0 0.00 0.00 0.00 28 1019.1
20200927165038 80 98 10.0 15.0 0.00 0.00 0.00 28 1019.1
20200927164542 79 115 8.0 13.0 0.00 0.00 0.00 30 1019.0
20200927164047 78 77 6.0 13.0 0.00 0.00 0.00 30 1019.1
20200927163548 77 100 9.0 13.0 0.00 0.00 0.00 33 1019.1
20200927163043 75 110 7.0 10.0 0.00 0.00 0.00 35 1019.1
20200927162542 71 44 3.0 6.0 0.00 0.00 0.00 42 1019.1
20200927162052 67 18 1.0 4.0 0.00 0.00 0.00 55 1019.1
20200927161554 66 293 1.0 5.0 0.00 0.00 0.00 55 1018.9
20200927161054 65 291 1.0 4.0 0.00 0.00 0.00 60 1018.9
20200927160549 64 291 2.0 4.0 0.00 0.00 0.00 62 1018.9
20200927160039 63 174 1.0 3.0 0.00 0.00 0.00 64 1018.8
20200927155540 63 174 1.0 3.0 0.00 0.00 0.00 64 1018.8
20200927155046 62 173 1.0 2.0 0.00 0.00 0.00 65 1018.8
20200927154542 61 173 0.0 2.0 0.00 0.00 0.00 64 1018.8
20200927154047 60 173 0.0 3.0 0.00 0.00 0.00 65 1018.9
20200927153543 59 175 1.0 2.0 0.00 0.00 0.00 66 1018.8
20200927153046 59 175 0.0 1.0 0.00 0.00 0.00 67 1018.8
20200927152546 58 174 0.0 1.0 0.00 0.00 0.00 68 1018.9
20200927152032 57 174 0.0 2.0 0.00 0.00 0.00 69 1018.9
20200927151539 56 174 0.0 2.0 0.00 0.00 0.00 71 1018.8
20200927151042 55 174 0.0 1.0 0.00 0.00 0.00 72 1018.8
20200927150547 55 174 0.0 2.0 0.00 0.00 0.00 73 1018.9
20200927150046 54 174 1.0 2.0 0.00 0.00 0.00 73 1018.8
20200927145535 53 174 0.0 3.0 0.00 0.00 0.00 74 1018.8